Location: Bh?mavarapp?du
(16.7041°N, 80.6518°E)
Time: 05:40:00
(UTC+00:00)

Cosmos 2142 Rocket - Pass Details

Date: 21 April 2021
Orbit: 953 x 1004 km, 82.9° (Epoch: 05 May)

Event Time Altitude Azimuth Distance (km) Brightness Sun altitude
Rises 14:12:23 0° 174° (S) 3,660 7.3 -18.8°
Reaches altitude 10° 14:14:54 10° 170° (S) 2,721 6.6 -19.4°
Maximum altitude 14:21:02 60° 92° (E) 1,123 4.5 -20.7°
Drops below altitude 10° 14:27:14 10° 14° (NNE) 2,757 6.9 -22.1°
Sets 14:29:48 0° 11° (N) 3,713 7.7 -22.7°
